レモン彗星

363P/Lemmon (2018)

English version
Home page
Updated on August 28, 2018

---------------------------------------------------------------------

・ プロフィール

符号 363P/2017 W1
検出日 2017年11月19日
検出光度 20.3等
検出者 Erwin Schwab and Pablo Ruiz (European Space Agency's Optical Ground Station, Tenerife, Spain)

・ 写真集

・ 軌道要素

Epoch 2018 Mar. 23.0 TT = JDT 2458200.5
T 2018 Mar. 22.92097 TT                                 MPCW
q   1.5078614            (2000.0)            P               Q
n   0.15691736     Peri.  315.28054     -0.57669651     -0.81686830
a   3.4042547      Node   169.91720     +0.76761145     -0.54688750
e   0.5570656      Incl.    3.97537     +0.27963153     -0.18341276
P   6.28
From 83 observations 2011 Nov. 3-2018 Jan. 14, mean residual 0".4.

・ 光度変化

        m1 = 17.5 + 5 logΔ + 10.0 log r

---------------------------------------------------------------------

軌道要素はM.P.E.C. 2018-B155に掲載されたものです。
光度グラフはComet for Windowsで作成したものです。

---------------------------------------------------------------------

Copyright(C) Seiichi Yoshida (comet@aerith.net). All rights reserved.